Regional Weather Roundup
Issued by NWS

Home | Current Version | Previous Version | Text Only | Print | Product List | Glossary Off
Versions: 1 2 3 4 5 6 7 8 9 10 11 12 13 14 15 16 17 18 19 20 21 22 23 24 25 26 27 28 29 30 31 32 33 34 35 36 37 38 39 40 41 42 43 44 45 46 47 48 49 50

000
ASUS43 KLOT 181900
RWRIL

ILLINOIS REGIONAL WEATHER ROUNDUP
NATIONAL WEATHER SERVICE CHICAGO/ROMEOVILLE IL
200 PM CDT THU SEP 18 2014

NOTE: "FAIR" INDICATES FEW OR NO CLOUDS BELOW 12,000 FEET WITH NO
SIGNIFICANT WEATHER AND/OR OBSTRUCTIONS TO VISIBILITY.

* THESE STATIONS ARE NOT UNDER NWS QUALITY CONTROL. THEY ALSO MAY NOT
  REPORT WEATHER SUCH AS PRECIPITATION OR FOG.

ILZ001-002-007-009-015-016-024-182000-
NORTHWEST ILLINOIS

CITY           SKY/WX    TMP DP  RH WIND       PRES   REMARKS
MOLINE         SUNNY     73  52  47 SE10      30.08F
STERLING*      SUNNY     72  54  53 E10       30.11F
$$

ILZ003-004-008-010-011-017-018-182000-
NORTH CENTRAL ILLINOIS

CITY           SKY/WX    TMP DP  RH WIND       PRES   REMARKS
ROCKFORD       MOSUNNY   68  54  60 MISG      30.15F
$$

ILZ005-006-012>014-019>023-182000-
NORTHEAST ILLINOIS

CITY           SKY/WX    TMP DP  RH WIND       PRES   REMARKS
CHICAGO-OHARE  MOSUNNY   68  54  60 NE10      30.13F
CHICAGO-MIDWAY MOSUNNY   71  54  54 N12       30.12F
AURORA         PTSUNNY   70  53  54 E10       30.13F
WAUKEGAN       CLOUDY    61  53  75 NE9       30.15F
DUPAGE AIRPORT MOSUNNY   70  53  54 NE9       30.13F
WHEELING       MOSUNNY   66  55  67 NE9       30.16F
NORTHERLY ISL    N/A     64  57  78 N10         N/A
$$

LMZ740>746-182000-
SOUTHERN LAKE MICHIGAN

STATION/POSITION SKY/WX   TEMP    WIND        PRES    VSBY  WAVE
                          AIR SEA DIR/SP/G                  HT/PER
                          (F)     (DEG/KT/KT) (MB)    (MI)  (FT/S)
SOUTHERN BUOY              63 64   CALM  /  2 1021.4S         3/ 6
WAUKEGAN HARBOR            58      20/ 15/ 16   N/A
HARRISON CRIB              61      10/  9/ 11   N/A
BURNHAM HARBOR             65      10/  9/  9   N/A
CALUMET HARBOR             64      20/  6/  9 1019.5F
MICHIGAN CITY              64     340/ 12/ 14   N/A
MICHIGAN CITY 6N           63 65   10/ 10/ 12   N/A           1/ 2
ST. JOSEPH                 63 67  340/ 10/ 12   N/A           1/ 2
$$

ILZ025>027-034>036-040-047-049-050-058-095>099-182000-
WEST-CENTRAL ILLINOIS

CITY           SKY/WX    TMP DP  RH WIND       PRES   REMARKS
QUINCY         MOSUNNY   72  53  51 SE9G18    30.06F
$$

ILZ028>032-037-038-041>044-048-051>054-059>061-182000-
CENTRAL ILLINOIS

CITY           SKY/WX    TMP DP  RH WIND       PRES   REMARKS
DECATUR        SUNNY     74  50  42 VRB3      30.08F
PEORIA         SUNNY     75  50  41 E10       30.09F
SPRINGFIELD    SUNNY     75  51  43 E7        30.07F
TAYLORVILLE    NOT AVBL
$$

ILZ033-039-045-046-055>057-062-063-182000-
EAST-CENTRAL ILLINOIS

CITY           SKY/WX    TMP DP  RH WIND       PRES   REMARKS
CHAMPAIGN      SUNNY     72  48  42 NE10      30.09F
MATTOON        SUNNY     72  49  44 NE8       30.07F
$$

ILZ079-100>102-182000-
SOUTHWEST ILLINOIS

CITY           SKY/WX    TMP DP  RH WIND       PRES   REMARKS
ALTON          MOSUNNY   70  54  56 E7        30.06
BELLEVILLE     MOSUNNY   74  56  52 NE10      30.04F
CAHOKIA*         N/A     74  56  53 E8        30.04F
$$

ILZ064>066-069>071-074>076-080>082-084>086-088>090-092>094-182000-
SOUTH-CENTRAL ILLINOIS

CITY           SKY/WX    TMP DP  RH WIND       PRES   REMARKS
CARBONDALE     MOSUNNY   73  58  59 E8        30.03F
MARION         MOSUNNY   75  57  53 NE6       30.04F
MT. VERNON     SUNNY     72  55  56 NE8       30.06F
$$

ILZ067-068-072-073-078-083-087-091-182000-
SOUTHEAST ILLINOIS

CITY           SKY/WX    TMP DP  RH WIND       PRES   REMARKS
LAWRENCEVILLE  SUNNY     73  53  49 E10       30.06F
$$

ABBREVIATIONS USED IN REMARKS
   TC - TEMPERATURE IN CELSIUS
  WCI - WIND CHILL INDEX
   HX - HEAT INDEX
  VSB - VISIBILITY
$$



USA.gov is the U.S. government's official web portal to all federal, state and local government web resources and services.